Le nostre stazioni meteo in Italia

Pubblicità
Il mio iltempo24.it
Pratica Di Mare, Italia (16245): Temperatura & dewpoint: 07.12.2019 22:00:00 - 13.12.2019 22:00:00 (CET)Pratica Di Mare, Italia (16245): velocità del vento: 07.12.2019 22:00:00 - 13.12.2019 22:00:00 (CET)Pratica Di Mare, Italia (16245): direzione del vento: 07.12.2019 22:00:00 - 13.12.2019 22:00:00 (CET)Pratica Di Mare, Italia (16245): reduced air pressure: 07.12.2019 22:00:00 - 13.12.2019 22:00:00 (CET)Pratica Di Mare, Italia (16245): visibility: 07.12.2019 22:00:00 - 13.12.2019 22:00:00 (CET)
Data & Tempo tt [°C] td [°C] ff [km/h] ff [kn] dd ppp [hPa] vv [km]
13.12.2019 22:00:00 12,4 7,5 18 10 NNO 987,2 10
13.12.2019 21:00:00 12,0 8,0 24 13 NO - 10
13.12.2019 20:00:00 13,0 7,0 37 20 NO - 8
13.12.2019 19:00:00 12,8 9,2 28 15 NO 986,6 8
13.12.2019 18:00:00 13,0 9,0 24 13 NNO - 8
13.12.2019 17:00:00 15,0 12,0 55 30 O - 8
13.12.2019 16:00:00 15,0 12,1 54 29 OSO 986,8 8
13.12.2019 15:00:00 15,0 13,0 48 26 SO - 5
13.12.2019 14:00:00 14,0 12,0 39 21 SO - 8
13.12.2019 13:00:00 14,4 13,4 37 20 SO 992,2 5
13.12.2019 12:00:00 13,0 11,0 34 18 SSO - 8
13.12.2019 11:00:00 14,0 13,0 34 18 SO - 8
13.12.2019 10:00:00 8,4 8,1 22 12 SE 997,6 3,0
13.12.2019 09:00:00 8,0 8,0 21 11 SE - 4,0
13.12.2019 08:00:00 8,0 7,0 26 14 ESE - 10
13.12.2019 07:00:00 8,4 6,5 21 11 ESE 1000,1 12
13.12.2019 06:00:00 8,0 5,0 21 11 E - 10
13.12.2019 05:00:00 8,0 5,0 21 11 E - 10
13.12.2019 04:00:00 7,2 5,7 15 8 E 1003,4 12
13.12.2019 03:00:00 7,0 6,0 13 7 E - 10
13.12.2019 02:00:00 6,0 5,0 4 2 E - 10
13.12.2019 01:00:00 6,0 5,2 4 2 NNE 1004,5 12
13.12.2019 00:00:00 7,0 6,0 5 3 NE - 10
12.12.2019 23:00:00 7,0 6,0 4 2 ENE - 10
12.12.2019 22:00:00 8,0 7,3 8 4 NE 1004,5 12
12.12.2019 21:00:00 9,0 8,0 4 2 NNE - 10
12.12.2019 20:00:00 9,0 8,0 8 4 NNO - 10
12.12.2019 19:00:00 8,4 7,5 5 3 O 1004,3 12
12.12.2019 18:00:00 9,0 8,0 8 4 NNE - 10
12.12.2019 17:00:00 10,0 8,0 8 4 NNE - 10
12.12.2019 16:00:00 10,4 7,6 11 6 NNE 1004,2 12
12.12.2019 15:00:00 10,0 8,0 21 11 NE - 10
12.12.2019 14:00:00 10,0 9,0 16 9 NNE - 10
12.12.2019 13:00:00 13,2 9,8 16 9 SSE 1005,1 12
12.12.2019 12:00:00 12,0 8,0 13 7 SE - 10
12.12.2019 11:00:00 10,0 5,0 13 7 E - 10
12.12.2019 10:00:00 9,0 4,2 11 6 E 1005,5 12
12.12.2019 09:00:00 9,0 4,0 11 6 E - 10
12.12.2019 08:00:00 9,0 5,0 13 7 E - 10
12.12.2019 07:00:00 7,6 3,8 4 2 E 1006,0 15
12.12.2019 06:00:00 6,0 4,0 5 3 NE - 10
12.12.2019 05:00:00 6,0 4,0 11 6 ENE - 10
12.12.2019 04:00:00 5,6 3,9 9 5 NNE 1007,8 15
12.12.2019 03:00:00 6,0 5,0 9 5 N - 10
12.12.2019 02:00:00 7,0 6,0 11 6 NNE - 10
12.12.2019 01:00:00 6,8 5,0 9 5 NNE 1008,9 15
12.12.2019 00:00:00 7,0 4,0 13 7 NNE - 10
11.12.2019 23:00:00 7,0 3,0 9 5 NNE - 10
11.12.2019 22:00:00 7,0 2,7 11 6 NNE 1009,9 15
11.12.2019 21:00:00 7,0 3,0 11 6 NNE - 10
11.12.2019 20:00:00 8,0 4,0 9 5 N - 10
11.12.2019 19:00:00 8,6 3,8 11 6 NNE 1010,0 20
11.12.2019 18:00:00 9,0 5,0 9 5 N - 10
11.12.2019 17:00:00 10,0 5,0 8 4 N - 10
11.12.2019 16:00:00 12,0 1,0 8 4 N 1010,5 25
11.12.2019 15:00:00 13,0 0,0 9 5 NNE - 10
11.12.2019 14:00:00 13,0 -1,0 11 6 N - 10
11.12.2019 13:00:00 12,4 1,4 13 7 NNE 1011,3 25
11.12.2019 12:00:00 12,0 2,0 16 9 NNE - 10
11.12.2019 11:00:00 10,0 1,0 21 11 NNE - 10
11.12.2019 10:00:00 9,0 2,3 26 14 NNE 1012,6 25
11.12.2019 09:00:00 8,0 4,0 22 12 NNE - 10
11.12.2019 08:00:00 7,0 5,0 21 11 NNE - 10
11.12.2019 07:00:00 8,2 5,0 21 11 NNE 1012,8 15
11.12.2019 06:00:00 8,0 4,0 18 10 NNE - 10
11.12.2019 05:00:00 8,0 4,0 18 10 NNE - 10
11.12.2019 04:00:00 8,4 4,8 18 10 NNE 1012,9 10
11.12.2019 03:00:00 9,0 5,0 21 11 NNE - 10
11.12.2019 02:00:00 9,0 5,0 16 9 N - 10
11.12.2019 01:00:00 9,6 5,4 18 10 N 1013,6 10
11.12.2019 00:00:00 10,0 5,0 16 9 N - 10
10.12.2019 23:00:00 10,0 5,0 16 9 NNE - 10
10.12.2019 22:00:00 10,0 5,8 18 10 NNE 1012,6 10
10.12.2019 21:00:00 10,0 5,0 22 12 NNE - 10
10.12.2019 20:00:00 11,0 5,0 22 12 NNE - 10
10.12.2019 19:00:00 11,4 5,1 22 12 N 1012,0 15
10.12.2019 18:00:00 10,0 2,0 22 12 N - 10
10.12.2019 17:00:00 12,0 2,0 16 9 N - 10
10.12.2019 16:00:00 13,6 2,8 22 12 N 1009,7 15
10.12.2019 15:00:00 14,0 5,0 22 12 N - 10
10.12.2019 14:00:00 14,0 5,0 21 11 N - 10
10.12.2019 13:00:00 13,0 5,9 24 13 NNE 1009,7 15
10.12.2019 12:00:00 12,0 8,0 24 13 N - 10
10.12.2019 11:00:00 10,0 6,0 22 12 NNE - 10
10.12.2019 10:00:00 9,8 7,1 21 11 NNE 1009,3 15
10.12.2019 09:00:00 9,0 7,0 26 14 NNE - 10
10.12.2019 08:00:00 9,0 7,0 22 12 NNE - 10
10.12.2019 07:00:00 8,8 7,9 9 5 N 1007,7 10
10.12.2019 06:00:00 9,0 8,0 8 4 N - 10
10.12.2019 05:00:00 10,0 9,0 11 6 N - 10
10.12.2019 04:00:00 9,8 9,0 9 5 N 1007,6 10
10.12.2019 03:00:00 9,0 8,0 13 7 N - 10
10.12.2019 02:00:00 10,0 9,0 9 5 NNE - 10
10.12.2019 01:00:00 8,8 7,9 8 4 N 1008,0 10
10.12.2019 00:00:00 10,0 8,0 8 4 NNE - 10
09.12.2019 23:00:00 10,0 8,0 5 3 N - 10
09.12.2019 22:00:00 10,0 9,1 4 2 N 1008,6 10
09.12.2019 21:00:00 10,0 9,0 5 3 N - 10
09.12.2019 20:00:00 12,0 9,0 5 3 N - 10
09.12.2019 19:00:00 13,0 10,5 9 5 NNO 1007,6 10
09.12.2019 18:00:00 13,0 12,0 8 4 NNO - 10
09.12.2019 17:00:00 15,0 13,0 21 11 O - 10
09.12.2019 16:00:00 16,2 13,1 15 8 O 1008,3 15
09.12.2019 15:00:00 16,0 14,0 21 11 O - 10
09.12.2019 14:00:00 16,0 13,0 24 13 OSO - 10
09.12.2019 13:00:00 16,0 13,8 13 7 SO 1010,2 10
09.12.2019 12:00:00 16,0 14,0 13 7 OSO - 10
09.12.2019 11:00:00 15,0 13,0 21 11 O - 10
09.12.2019 10:00:00 15,2 12,7 22 12 OSO 1012,6 10
09.12.2019 09:00:00 13,0 12,0 18 10 E - 10
09.12.2019 08:00:00 14,0 12,0 13 7 S - 10
09.12.2019 07:00:00 12,8 11,5 8 4 SE 1013,8 10
09.12.2019 06:00:00 14,0 13,0 2 1 SO - 10
09.12.2019 05:00:00 14,0 13,0 4 2 ENE - 8
09.12.2019 04:00:00 13,2 11,8 5 3 N 1016,1 12
09.12.2019 03:00:00 13,0 12,0 13 7 SE - 10
09.12.2019 02:00:00 13,0 12,0 11 6 ESE - 10
09.12.2019 01:00:00 13,2 11,9 5 3 NE 1019,2 10
09.12.2019 00:00:00 13,0 12,0 11 6 E - 10
08.12.2019 23:00:00 14,0 13,0 9 5 E - 10
08.12.2019 22:00:00 13,6 12,7 9 5 E 1019,3 12
08.12.2019 21:00:00 13,0 13,0 4 2 ENE - 10
08.12.2019 20:00:00 14,0 13,0 5 3 E - 10
08.12.2019 19:00:00 14,6 13,7 4 2 ENE 1019,7 10
08.12.2019 18:00:00 15,0 14,0 8 4 NE - 10
08.12.2019 17:00:00 15,0 14,0 2 1 O - 10
08.12.2019 16:00:00 16,2 13,5 5 3 OSO 1020,3 10
08.12.2019 15:00:00 16,0 13,0 11 6 OSO - 10
08.12.2019 14:00:00 16,0 12,0 13 7 OSO - 10
08.12.2019 13:00:00 15,6 13,6 8 4 S 1021,3 10
08.12.2019 12:00:00 15,0 14,0 8 4 SE - 10
08.12.2019 11:00:00 14,0 12,0 9 5 ESE - 10
08.12.2019 10:00:00 14,0 12,1 9 5 ESE 1021,8 10
08.12.2019 09:00:00 13,0 11,0 8 4 E - 10
08.12.2019 08:00:00 13,0 11,0 11 6 E - 10
08.12.2019 07:00:00 13,0 11,4 8 4 ESE 1020,8 12
08.12.2019 06:00:00 13,0 12,0 8 4 SE - 10
08.12.2019 05:00:00 13,0 12,0 11 6 E - 10
08.12.2019 04:00:00 13,0 11,4 9 5 E 1021,2 12
08.12.2019 03:00:00 13,0 12,0 11 6 E - 10
08.12.2019 02:00:00 13,0 12,0 9 5 E - 10
08.12.2019 01:00:00 12,6 11,8 11 6 E 1021,4 12
08.12.2019 00:00:00 12,0 11,0 8 4 E - 10
07.12.2019 23:00:00 12,0 11,0 4 2 ENE - 10
07.12.2019 22:00:00 12,0 11,2 4 2 NE 1021,3 12

tt = Temperatura
td = dewpoint
ff = velocità del vento
dd = direzione del vento
ppp = reduced air pressure
vv = visibility

Stazioni seguenti

WeatherPro
AMSI
MeteoEarth